Hourly Data Report for December 06, 2016

All times are specified in Local Standard Time (LST). Add 1 hour to adjust for Daylight Saving Time where and when it is observed.

GRANBY
QUEBEC

45°22'22.000" N
72°46'26.000" W
86.00 m
7022802
MGB

Related Data

No related data is available for this station

Download Data

Hourly Data (December 2016)
Hourly Data Report for December 6, 2016
Temp Definition
°C
Dew Point Temp Definition
°C
Rel Hum Definition
%
Wind Dir Definition
10's deg

Wind Spd Definition
km/h
Visibility Definition
km
Stn Press Definition
kPa
Hmdx Definition


Wind Chill Definition


Weather Definition


TIME
00:00 -3.6 -4.0 97 20 2   100.65   -4 LegendNANA
01:00 -3.2 -3.7 97   0   100.72     LegendNANA
02:00 -3.0 -3.7 95 0 1   100.76   -3 LegendNANA
03:00 -3.7 -4.1 98 27 2   100.82   -5 LegendNANA
04:00 -3.2 -3.5 97 0 1   100.86   -4 LegendNANA
05:00 -3.2 -3.5 98 20 3   100.88   -4 LegendNANA
06:00 -3.8 -4.2 97 0 1   100.93   -4 LegendNANA
07:00 -3.3 -3.7 97 0 1   100.97   -4 LegendNANA
08:00 -3.0 -3.4 97 21 2   100.98   -4 LegendNANA
09:00 -2.3 -3.0 95 19 5   101.06   -4 LegendNANA
10:00 -1.7 -2.6 93 21 4   101.01   -3 LegendNANA
11:00 -0.8 -2.2 90 17 4   100.98   -2 LegendNANA
12:00 0.0 -2.3 84 24 2   100.88   -1 LegendNANA
13:00 -0.1 -1.9 88 20 2   100.84   -1 LegendNANA
14:00 0.0 -2.5 83 17 2   100.81   -1 LegendNANA
15:00 -0.2 -3.1 80 12 3   100.80   -1 LegendNANA
16:00 -0.7 -3.9 79 4 5   100.75   -2 LegendNANA
17:00 -0.8 -3.5 82 10 4   100.69   -2 LegendNANA
18:00 -0.9 -3.4 83 9 3   100.67   -2 LegendNANA
19:00 -1.2 -3.8 82 6 4   100.61   -3 LegendNANA
20:00 -1.5 -3.8 85 4 3   100.58   -3 LegendNANA
21:00 -2.2 -3.8 88 11 1   100.55   -3 LegendNANA
22:00 -2.1 -4.0 87 7 2   100.55   -3 LegendNANA
23:00 -1.8 -4.1 84 4 6   100.42   -4 LegendNANA

Notes on Data Quality.

Legend

  • E = Estimated
  • M = Missing
  • NA = Not Available
  • ‡ = Partner data that is not subject to review by the National Climate Archives
Date modified: